Wind_Speed
11 12 13 13 12 11 11 11 12 12 11 11 12 13 12 12 12 14 13 13 15 16 14 13 13 13 13 14 15 16 16 15 14 15 17 18 17 18 18 18 20 20 20 19 18 17 17 17 16 15 15 15 15 15 14 14 14 15 16 17 18 18 18 17 16 16 15 15 15 16 16 16 17 17 17 17 17 17 17 16 16 15 14 14 13
11 10 12 13 13 12 12 12 11 11 12 12 12 12 11 9 10 12 12 12 13 15 14 13 13 13 13 13 14 14 14 14 14 16 17 18 18 19 19 20 21 21 21 21 21 19 18 19 17 16 16 15 15 16 15 14 14 15 15 17 18 19 19 19 18 17 16 16 16 16 16 16 17 17 17 18 18 18 18 18 17 17 16 16 15
11 11 13 15 14 12 11 11 11 11 12 13 13 12 11 9 8 9 9 9 10 12 13 13 12 11 12 13 14 13 14 13 13 16 17 18 19 19 20 22 22 22 22 23 23 21 19 19 19 17 17 16 16 17 17 16 16 16 16 16 17 18 19 19 19 19 18 17 17 17 17 17 17 17 18 18 19 19 19 19 19 19 18 18 17
12 13 14 14 13 12 11 10 10 10 10 11 12 10 10 9 7 7 7 9 10 11 11 12 12 11 10 11 12 13 13 13 13 15 17 17 19 20 22 23 22 23 23 23 23 22 21 21 20 19 18 17 17 18 17 17 18 17 17 17 17 17 18 19 20 20 20 20 19 19 18 19 19 19 19 19 19 20 20 20 20 20 20 20 20
13 13 13 12 13 13 11 11 10 10 8 8 9 8 8 7 6 6 8 10 10 10 10 9 11 11 10 10 10 12 12 12 14 15 16 17 19 20 19 19 19 21 22 22 22 22 22 22 22 21 19 19 18 18 18 18 19 20 19 19 19 19 18 19 19 19 20 21 21 21 21 21 21 21 21 20 20 20 21 21 21 21 21 21 21
10 10 11 12 12 11 11 11 11 11 9 8 7 6 6 6 5 6 7 8 9 9 9 9 10 11 11 9 9 10 10 12 14 13 14 16 17 15 14 13 14 16 17 19 21 22 23 23 23 23 22 21 20 19 19 19 20 21 21 21 21 20 20 19 19 19 19 20 21 22 23 23 23 22 22 22 22 22 22 22 22 22 22 22 22
10 10 11 11 11 11 11 11 11 11 10 8 8 6 6 6 6 6 6 7 8 8 7 7 7 9 11 11 8 9 12 13 13 11 12 15 15 13 11 11 12 14 14 16 18 19 21 22 24 25 25 23 22 21 20 19 20 21 22 22 22 22 21 20 20 20 20 20 21 22 22 23 24 24 24 24 24 24 24 24 24 23 23 23 23
10 11 11 11 11 11 11 11 11 10 10 9 8 7 6 6 6 6 6 6 6 7 6 5 5 8 11 11 8 9 12 12 12 11 11 13 14 13 12 11 11 12 13 14 14 15 17 19 21 23 25 25 23 22 21 21 21 21 21 22 22 22 21 21 20 21 21 21 21 22 22 23 23 24 25 26 26 26 26 26 26 26 25 25 25
11 12 12 11 12 12 12 11 10 10 9 8 7 6 6 6 5 5 6 6 6 6 7 7 8 9 11 11 9 10 12 11 12 13 12 11 12 13 13 12 11 11 11 11 11 11 12 15 16 18 21 24 24 24 23 22 22 21 21 21 21 22 21 21 21 21 21 21 21 22 22 23 23 24 25 26 27 28 27 27 27 27 27 27 26
11 11 12 11 11 11 11 11 11 10 9 8 7 7 7 5 5 6 6 6 6 6 8 8 9 10 10 10 10 9 11 12 12 13 12 12 13 13 13 13 13 11 10 9 9 10 11 11 13 14 16 20 23 25 24 24 23 23 22 22 22 22 22 21 21 21 21 21 22 22 23 23 24 24 25 26 27 28 29 29 29 29 29 28 28
12 12 12 12 11 10 10 10 11 11 10 9 8 8 8 7 6 6 6 6 6 7 8 8 9 10 9 9 8 8 11 12 12 12 12 12 13 13 12 12 13 13 11 10 10 10 10 10 11 13 15 17 20 22 24 24 24 23 23 22 22 21 21 21 21 21 21 21 22 22 23 23 24 24 25 26 27 28 29 31 31 31 30 30 30
14 13 13 12 12 11 10 9 10 11 11 10 10 9 9 8 7 7 7 7 7 8 8 8 9 10 9 8 8 9 10 11 12 13 12 12 13 12 12 11 12 13 13 12 11 10 10 10 11 12 15 16 18 20 23 24 24 23 22 22 21 21 21 21 21 21 21 21 22 22 23 23 23 24 25 26 27 28 29 30 31 32 32 32 31
15 15 14 14 13 12 11 9 10 11 11 11 11 10 9 9 9 8 8 8 8 8 7 8 9 9 9 8 8 9 10 10 12 13 12 13 13 12 12 12 12 12 12 12 11 11 10 10 12 13 15 15 15 18 22 22 22 22 21 20 20 20 21 21 21 22 22 22 22 22 22 22 23 24 25 26 27 28 29 29 29 30 32 32 32
17 17 16 15 14 13 12 11 10 10 10 11 12 12 11 11 10 9 8 8 9 8 7 9 9 9 9 9 8 8 9 10 12 13 12 13 14 14 13 13 12 12 12 11 11 11 11 11 12 14 14 13 14 17 19 20 21 20 19 18 18 18 19 20 20 21 22 22 23 24 23 23 22 23 24 25 26 27 29 30 30 30 31 31 32
18 18 17 17 16 14 14 13 11 10 10 10 11 12 12 12 11 10 9 9 9 9 8 8 9 9 9 9 9 9 9 10 11 12 12 14 15 15 14 13 12 12 11 10 10 11 11 11 11 12 13 12 13 14 15 15 16 18 17 17 17 18 19 19 20 22 23 24 25 25 24 23 23 23 24 25 26 27 28 29 30 31 32 31 32
17 18 18 17 16 15 15 14 13 12 10 10 11 12 13 13 12 11 10 10 9 9 9 8 8 9 10 10 9 9 10 10 12 13 13 14 15 16 14 13 13 13 12 11 11 12 12 12 12 12 12 12 12 12 11 10 9 10 14 16 17 17 18 19 20 22 24 24 25 24 24 24 24 24 25 25 26 27 28 29 29 31 32 33 33
17 18 18 16 15 15 15 15 14 13 12 11 11 12 13 14 14 13 12 11 10 9 9 9 9 9 10 10 9 10 10 10 12 13 13 13 15 16 15 14 14 13 12 12 12 13 14 15 14 13 13 13 13 13 11 9 7 7 9 12 13 15 16 18 20 23 23 23 23 24 24 25 25 25 25 26 26 27 28 28 27 28 30 33 34
18 18 17 16 15 15 15 15 14 13 13 11 11 12 13 14 15 14 13 12 11 11 10 10 9 9 9 10 10 10 11 11 12 13 13 13 14 16 16 15 14 13 13 13 14 14 15 15 14 13 14 14 14 14 13 12 11 10 10 11 11 12 13 16 20 22 23 22 23 24 24 24 26 26 26 27 27 27 27 27 26 25 27 30 34
18 18 17 16 15 15 15 14 13 13 12 12 11 12 13 15 15 15 14 14 13 12 12 12 11 10 10 10 10 11 11 11 12 12 13 14 15 16 16 15 15 15 14 15 15 16 16 15 15 14 15 15 15 15 14 14 14 13 13 13 13 13 13 14 16 19 20 21 21 23 23 24 26 27 27 26 26 25 26 26 25 24 25 26 30
19 18 16 16 15 15 15 14 13 13 12 12 12 12 13 15 15 15 15 15 14 13 13 13 12 11 11 11 11 11 12 11 11 12 13 14 15 15 15 16 17 17 17 16 16 16 16 17 16 16 16 16 16 16 15 15 16 16 15 15 15 15 14 14 15 16 17 19 19 20 20 21 23 25 25 23 23 23 24 24 24 23 23 23 25
17 16 16 16 15 15 15 15 14 14 13 13 12 13 13 14 15 16 16 16 15 14 14 13 12 12 12 12 11 11 11 11 11 12 12 14 14 14 15 16 17 18 17 16 15 16 17 17 18 18 18 17 17 17 17 17 17 17 16 15 15 15 15 15 14 14 15 17 18 17 17 16 17 20 21 21 22 22 22 22 21 20 20 20 22
15 15 16 16 16 16 16 16 15 15 14 14 13 13 14 14 15 16 16 17 16 15 15 14 13 12 12 12 11 11 10 11 11 11 11 12 12 13 13 14 15 16 16 15 16 17 18 18 19 19 19 19 19 19 19 19 18 17 16 15 15 15 15 14 14 14 14 16 17 18 17 16 15 17 18 20 21 21 21 20 19 19 20 20 20
15 15 15 15 15 15 16 16 16 16 15 15 15 14 15 15 16 17 17 17 16 15 15 15 14 13 13 13 12 11 10 11 12 11 11 11 12 12 13 13 14 15 15 16 18 19 19 19 20 20 21 21 20 20 20 20 19 18 17 16 16 16 16 15 15 15 15 16 17 17 18 17 17 17 18 18 19 20 20 20 20 19 19 19 20
14 14 14 15 15 15 15 15 16 16 16 16 16 16 15 16 16 17 18 18 17 17 16 15 14 13 13 13 13 11 11 12 12 13 12 12 12 12 13 13 13 15 16 18 19 20 20 21 21 21 21 21 21 20 20 19 19 19 18 17 17 17 17 18 18 18 18 17 17 18 18 18 18 18 18 19 18 18 19 21 21 21 20 19 19
13 13 14 14 15 15 15 16 16 16 16 16 15 15 15 16 16 17 18 19 19 18 18 17 16 14 14 14 13 12 12 12 13 13 13 13 12 12 13 13 13 14 16 17 19 20 20 21 21 21 21 20 20 19 19 20 20 20 20 19 18 18 18 18 19 19 19 19 19 20 20 20 20 20 21 21 21 21 21 22 23 23 23 22 21
15 15 15 15 16 17 16 16 15 15 15 14 14 14 15 15 16 16 17 18 18 18 18 18 17 16 15 15 14 13 12 13 13 14 14 13 13 13 13 13 13 13 15 16 17 18 19 20 21 21 21 21 21 20 20 20 19 19 20 20 19 19 19 19 19 20 20 20 20 21 22 23 23 24 24 24 24 25 25 24 24 25 25 24 24
16 16 17 17 18 17 16 14 13 13 14 15 16 16 16 16 16 16 16 16 17 17 17 17 17 17 16 16 15 14 14 13 13 14 14 15 15 15 14 13 12 12 13 15 16 16 18 19 20 20 20 21 21 20 20 19 18 18 18 18 18 18 19 19 19 20 20 20 20 21 22 23 24 24 25 25 25 26 26 25 25 25 26 26 26
17 17 17 17 18 17 16 15 15 15 16 17 17 18 17 16 15 15 15 15 15 16 16 16 16 16 17 17 16 16 16 15 14 14 14 15 16 16 16 15 13 12 13 14 14 15 16 16 18 18 19 19 19 19 19 18 17 17 16 16 16 17 17 18 19 19 19 20 20 20 21 22 22 23 23 24 25 25 25 25 25 25 25 26 27
17 17 17 17 17 17 17 17 17 17 16 17 17 17 17 16 15 14 14 14 15 15 15 15 15 16 16 17 17 17 17 17 16 16 15 15 16 17 17 17 15 13 14 14 14 14 14 15 16 16 17 17 17 18 17 17 17 17 16 16 16 16 16 17 17 18 18 19 19 19 20 20 21 21 22 22 23 23 24 24 24 25 25 25 26
16 15 15 15 16 17 17 17 18 17 17 16 15 16 15 15 14 14 15 15 16 16 16 16 16 17 17 17 17 17 18 18 18 17 16 16 16 17 17 18 16 15 14 15 14 14 14 14 15 15 15 16 16 16 17 17 17 17 17 17 17 17 16 17 17 17 18 18 18 19 19 19 19 20 20 21 21 21 22 22 22 23 23 24 24
15 13 14 14 15 15 16 16 16 16 16 16 16 16 15 15 15 15 15 16 17 18 18 19 18 18 18 18 17 17 17 17 17 17 16 16 16 16 17 17 17 15 15 15 15 15 15 14 15 15 15 15 16 16 16 16 17 17 17 17 17 17 17 17 17 18 18 19 19 19 19 19 19 19 20 20 20 21 21 21 21 21 22 22 23
14 14 14 15 15 15 15 15 15 16 16 16 17 17 17 17 17 16 16 17 17 18 19 19 19 19 18 18 17 17 16 16 15 15 15 15 15 15 15 16 16 15 15 15 15 15 15 14 14 15 15 15 15 15 16 16 16 17 17 17 18 18 18 18 18 18 19 19 20 21 21 21 21 21 21 21 21 21 21 21 22 22 22 22 22
16 15 16 17 17 17 17 17 16 17 17 17 18 19 19 19 19 19 18 18 18 18 18 18 18 18 18 18 18 18 17 17 16 16 15 14 14 14 15 15 15 15 15 15 15 14 14 14 14 14 14 14 15 15 16 16 17 17 18 18 18 18 19 19 19 19 19 19 20 21 22 23 23 23 23 23 23 22 22 22 22 22 23 23 23
18 18 18 18 19 19 19 19 19 19 19 19 20 20 20 21 20 20 19 18 18 18 18 18 18 18 19 19 20 19 19 18 17 16 15 15 15 15 15 15 16 15 15 15 15 15 15 15 15 15 15 15 15 16 16 17 17 18 19 19 19 19 20 20 21 22 21 21 21 22 23 23 24 24 25 25 25 25 25 24 24 23 24 24 25
20 20 20 20 21 21 21 21 22 22 21 21 20 21 21 21 21 20 19 19 19 18 18 18 19 20 21 21 21 21 20 19 18 17 17 16 16 16 16 17 17 17 17 17 17 17 18 18 18 18 18 17 17 19 19 19 20 20 20 21 21 21 22 22 22 23 24 24 24 24 24 25 25 25 26 27 27 27 27 27 26 26 26 26 26
22 22 22 22 23 23 23 23 22 22 21 21 20 21 21 21 21 20 20 20 20 20 20 20 21 21 22 22 22 22 21 20 19 19 19 19 19 19 19 19 20 20 20 20 21 21 22 21 20 20 20 20 20 21 21 21 21 22 22 23 24 24 25 25 25 25 26 27 28 28 27 27 27 28 28 28 28 29 29 29 29 29 28 28 28
24 24 24 24 24 24 23 22 21 21 21 21 20 20 21 21 21 21 21 21 21 21 21 21 21 21 21 22 22 23 22 21 21 21 22 22 22 23 23 22 23 23 23 23 23 24 24 23 21 22 22 22 23 23 23 23 25 25 25 26 27 28 28 28 29 29 29 29 31 32 32 31 30 31 31 31 31 30 31 31 31 31 31 31 30
26 26 26 25 24 23 22 21 21 21 21 21 20 20 20 21 21 22 22 22 22 22 22 21 20 20 21 22 23 24 24 25 25 25 26 26 27 27 27 25 25 26 26 26 25 25 24 23 23 24 25 26 27 28 27 28 29 30 30 30 31 31 31 31 32 33 33 33 33 34 36 36 35 35 35 35 35 34 33 34 34 34 34 34 33
27 27 26 25 24 22 21 22 22 22 21 21 21 22 22 21 22 22 23 23 24 23 23 23 21 21 22 23 25 26 27 28 29 29 30 29 29 30 29 29 28 28 29 28 28 27 27 28 28 29 29 30 32 33 34 34 34 34 35 35 35 35 35 35 36 37 37 37 37 36 37 38 38 38 38 38 38 38 38 38 38 37 37 37 37
26 26 26 25 23 22 22 23 23 23 23 22 21 21 22 21 21 22 23 23 25 26 26 25 24 23 24 25 26 27 29 30 30 30 30 29 29 29 29 29 29 29 29 29 29 30 30 32 33 34 35 36 37 37 38 38 37 36 36 37 37 37 38 39 40 41 42 42 42 41 40 41 41 41 41 41 41 41 41 42 42 42 42 41 41
24 24 25 25 24 24 25 25 25 26 26 25 23 22 21 21 21 22 22 23 26 28 28 27 27 27 26 25 25 26 29 30 30 30 29 29 28 27 26 27 28 28 29 29 30 32 33 35 37 38 39 40 41 41 40 40 40 39 38 39 40 41 42 43 44 45 45 45 45 45 44 44 43 43 44 44 44 44 44 45 46 46 46 46 46
24 24 25 26 25 26 27 28 29 30 29 27 26 26 25 24 23 25 25 25 27 28 28 28 29 30 30 28 27 27 29 28 28 28 29 30 29 28 28 28 28 29 30 32 33 35 36 37 39 40 42 43 44 45 44 44 43 43 42 43 43 44 45 45 45 46 46 47 46 46 46 47 46 45 46 46 46 47 46 46 47 48 48 49 49
23 23 25 26 27 27 29 29 30 32 29 25 25 27 26 26 27 28 28 28 28 29 30 31 31 32 32 31 31 32 32 31 30 29 30 32 31 31 31 31 31 33 34 36 37 38 38 39 41 42 44 45 46 46 46 46 46 45 45 45 45 46 46 46 45 45 45 46 47 47 46 47 48 47 47 48 48 48 48 48 48 48 48 49 50
23 24 27 29 29 29 30 30 31 33 33 30 30 30 29 30 31 30 29 29 30 31 32 33 34 36 37 37 36 36 36 35 34 33 31 32 32 33 33 33 34 35 37 38 39 39 40 42 43 44 45 45 45 45 45 45 46 46 47 47 47 47 47 47 46 46 45 46 47 47 46 47 48 48 48 49 50 50 50 50 50 50 50 50 50
27 29 30 32 33 33 32 33 35 36 37 37 36 34 32 32 31 31 31 32 34 36 37 38 38 39 41 42 43 42 40 38 38 37 34 31 31 32 33 34 35 37 38 40 41 42 44 44 45 46 46 45 44 44 45 45 46 47 48 48 49 49 49 49 48 48 48 48 49 48 47 47 48 49 49 50 51 51 51 52 52 52 51 51 52
32 33 34 35 36 36 36 38 38 36 37 38 38 37 36 36 36 36 37 37 37 38 39 40 41 41 43 45 46 46 45 42 40 40 38 36 34 35 37 39 41 41 42 43 44 46 46 46 47 47 46 45 45 46 47 48 48 48 49 49 49 50 50 50 49 49 49 49 50 50 49 48 49 49 49 50 51 51 52 53 53 53 53 53 53
36 37 38 38 39 41 41 41 39 39 40 41 42 41 40 39 40 40 40 39 38 39 39 40 41 42 44 46 47 47 47 45 42 40 41 42 43 44 46 47 46 46 46 47 48 48 48 48 49 48 46 46 47 48 48 48 49 49 50 50 51 51 52 52 51 51 50 50 50 50 50 49 50 51 50 51 51 51 52 53 54 55 55 54 54
40 41 42 42 42 43 43 42 42 43 44 44 43 43 43 43 43 41 39 38 38 38 39 40 40 41 43 45 46 47 47 46 46 44 44 45 46 47 47 47 47 48 49 49 49 49 49 48 47 47 47 47 47 47 47 48 48 49 50 51 52 52 53 52 52 52 52 52 52 52 52 51 52 52 52 52 52 52 52 53 54 55 55 56 56
44 43 42 41 40 40 41 41 40 41 43 43 43 43 44 44 44 42 40 39 38 38 40 41 41 42 44 45 45 47 49 50 50 50 48 47 47 47 47 47 47 47 48 48 48 47 46 45 45 45 45 45 46 46 47 48 49 50 50 51 51 51 52 52 52 52 53 53 54 54 54 53 53 54 53 53 53 53 53 54 55 55 56 57 57
42 41 40 40 41 42 43 43 42 42 43 44 46 47 47 45 44 43 43 43 42 43 43 43 43 43 44 45 46 48 51 52 52 52 51 49 49 49 48 47 45 44 44 45 45 44 44 45 44 44 44 44 46 46 47 48 49 50 50 50 50 51 52 53 53 54 54 55 55 55 55 54 54 54 55 54 53 54 55 55 55 55 55 56 57
41 42 44 46 48 49 49 49 49 49 48 47 47 47 48 47 46 48 50 49 48 48 47 45 45 45 45 46 47 48 50 51 51 51 51 50 49 47 46 45 44 43 42 43 44 44 45 45 45 45 46 47 48 49 49 49 50 50 50 51 52 53 54 54 55 55 55 55 55 56 56 55 54 55 55 55 54 54 55 55 56 56 55 55 55
Wind_Direction
293 292 293 296 299 299 293 285 283 284 281 274 266 264 266 269 278 279 263 247 250 253 252 257 263 264 264 261 262 267 269 265 263 261 257 256 255 255 255 254 256 257 259 260 259 256 255 255 253 248 242 238 240 240 236 235 235 238 239 240 241 240 240 240 239 238 239 241 243 244 243 242 242 243 245 246 246 244 243 242 242 242 241 241 240
296 296 295 296 296 292 287 289 291 288 284 282 278 272 272 270 280 281 257 243 246 244 245 253 260 271 276 273 268 270 272 267 263 264 260 258 256 254 255 255 256 257 258 260 261 259 258 258 257 254 251 246 243 242 240 238 237 238 239 239 241 241 241 241 242 242 242 243 245 248 249 248 245 244 244 245 246 246 246 245 244 244 243 244 243
297 294 292 292 290 289 288 293 297 295 292 294 293 286 285 285 289 285 260 249 252 249 253 254 253 263 273 278 275 274 277 268 265 271 266 262 261 259 257 256 256 257 257 259 260 261 261 261 260 257 255 252 248 245 243 241 240 239 239 240 241 242 244 245 245 245 245 245 245 247 250 252 251 249 246 245 246 246 247 247 246 246 244 244 244
289 289 293 291 286 287 291 294 297 299 300 299 298 294 293 294 292 292 282 275 272 268 267 264 265 268 267 273 273 274 279 272 267 271 269 266 266 262 257 256 257 259 260 260 261 264 264 262 261 259 256 254 252 250 247 245 243 241 240 240 242 243 244 245 247 247 246 245 244 244 246 249 251 252 250 248 247 246 247 246 246 246 245 244 244
283 288 293 289 282 284 287 291 295 299 303 302 301 299 297 294 285 280 279 279 278 278 276 272 275 273 266 261 260 269 277 274 268 269 273 266 258 256 257 261 265 265 265 263 263 263 263 261 261 261 258 257 257 256 254 251 248 244 241 240 241 242 243 244 246 248 248 246 245 244 244 245 247 249 251 251 250 249 248 247 246 246 246 245 244
289 290 288 284 284 287 290 292 297 303 309 313 310 305 298 294 287 279 280 283 282 283 283 282 276 267 262 251 250 265 263 261 262 266 274 267 259 262 268 275 275 270 266 263 260 258 258 258 260 261 258 257 258 259 258 256 253 250 246 242 241 241 242 244 246 248 248 248 247 245 245 245 246 247 250 251 251 251 250 249 248 247 246 246 245
294 292 291 290 291 292 295 298 302 307 313 319 320 323 315 303 301 298 300 303 297 294 291 289 273 258 260 250 242 252 248 253 262 267 278 280 281 284 284 284 279 277 276 271 266 261 259 259 261 261 257 254 254 256 257 256 255 253 250 246 244 243 243 244 245 246 248 248 248 247 246 246 246 246 248 250 251 251 251 250 249 248 246 246 246
294 292 291 293 295 295 298 302 304 308 313 317 320 325 321 310 311 311 311 311 306 304 297 286 266 260 264 257 246 253 255 262 270 277 285 284 286 288 290 291 283 283 285 279 276 271 265 261 263 262 256 250 248 250 251 251 252 252 250 247 247 247 247 248 248 248 248 248 248 248 248 247 247 246 246 248 249 250 251 251 251 249 248 246 245
284 286 289 293 296 296 299 301 301 303 305 309 310 309 307 304 303 300 300 298 289 290 286 276 272 270 266 260 257 262 268 276 276 279 283 280 285 289 293 297 293 291 289 282 276 274 270 266 267 265 256 249 248 249 248 248 248 248 247 246 246 248 249 250 251 252 250 248 249 249 250 250 249 248 247 247 247 249 250 251 252 251 250 248 246
276 280 284 287 291 294 297 299 298 298 297 299 299 294 293 291 286 286 291 290 284 280 275 272 273 273 272 268 264 261 266 274 272 273 282 287 291 293 294 296 293 292 294 288 278 273 275 275 273 266 258 252 249 249 249 249 249 248 247 246 245 246 247 250 251 252 252 251 251 252 252 252 251 250 250 249 248 249 249 249 251 251 251 251 249
274 274 277 280 284 288 291 294 293 290 288 289 288 284 286 284 278 278 280 280 280 274 268 269 270 274 282 281 274 271 274 280 280 281 290 293 292 294 297 294 290 289 287 284 281 277 274 276 275 266 258 254 251 250 250 251 251 250 250 248 248 248 248 250 251 252 253 254 254 254 254 254 253 253 253 253 252 251 251 250 251 251 252 252 252
276 275 277 280 283 286 289 290 288 286 283 282 281 280 283 286 281 276 275 272 269 265 263 267 269 272 279 279 275 280 287 293 296 296 300 302 299 300 299 293 288 286 284 281 281 280 273 271 271 265 259 256 255 254 251 251 251 251 252 252 251 251 251 252 252 253 254 256 257 257 257 256 254 253 253 254 255 255 255 255 254 253 253 253 254
277 278 280 283 286 288 288 288 287 287 284 282 281 281 281 281 279 276 275 271 267 266 264 261 264 270 274 275 277 283 291 296 299 303 308 307 303 301 300 296 290 286 285 283 282 282 278 271 268 267 266 264 264 261 256 255 254 252 253 254 253 253 253 253 253 253 254 255 256 255 255 256 256 255 255 255 256 257 259 259 259 257 256 255 255
279 279 279 281 284 286 287 288 289 289 288 286 283 281 278 274 273 273 272 272 273 274 269 261 265 274 277 279 281 281 286 291 295 302 306 304 302 301 298 293 289 290 288 282 279 278 276 275 275 279 281 280 281 279 272 267 261 255 254 257 257 257 257 256 255 254 253 252 253 254 255 257 258 259 259 259 258 259 259 260 260 259 258 257 256
280 280 278 279 281 285 288 288 288 288 288 290 288 283 278 274 272 271 267 267 270 273 274 266 266 272 272 274 278 278 282 287 292 299 302 302 301 298 295 293 293 293 288 282 279 276 272 272 277 286 290 290 293 296 296 289 273 259 258 263 263 262 261 259 257 254 253 253 255 259 260 261 263 263 263 263 263 262 261 261 261 260 259 258 257
279 279 279 280 284 288 291 289 288 288 288 291 293 288 285 282 278 273 268 265 265 269 274 270 268 271 271 274 278 278 281 284 287 293 298 298 296 293 295 300 299 291 285 285 284 280 279 278 280 286 289 294 302 308 317 323 303 271 261 264 267 265 262 260 258 256 257 259 261 263 264 264 266 267 267 266 266 266 266 265 264 262 260 259 257
279 279 279 280 283 286 286 287 288 289 291 293 295 293 292 288 282 278 275 273 271 268 269 271 274 277 278 285 285 278 280 282 283 287 291 290 289 290 296 301 298 292 287 287 285 283 284 286 289 293 293 295 302 308 316 327 326 306 284 278 278 273 266 261 259 258 259 261 264 265 265 265 265 266 267 267 268 270 272 272 271 267 262 259 257
279 278 277 277 279 281 280 282 284 287 289 291 294 296 295 291 287 284 281 279 278 276 275 276 282 285 285 287 284 282 286 287 285 286 286 283 282 287 291 291 288 289 290 288 285 283 283 285 289 294 296 297 300 303 307 309 309 309 307 302 297 290 279 269 264 262 261 261 262 265 266 267 266 266 267 269 271 273 275 276 278 275 268 262 258
278 276 275 276 277 278 277 277 279 283 286 288 291 294 294 293 293 292 289 286 284 284 283 281 284 289 290 289 287 287 291 289 286 285 284 283 284 286 286 284 283 286 289 288 285 283 282 283 285 289 290 292 295 298 301 304 304 305 306 306 303 300 293 281 272 268 266 264 264 266 267 267 265 265 267 270 274 276 275 275 275 274 273 268 261
276 275 275 278 279 278 276 275 276 279 284 288 290 291 291 293 294 294 292 291 288 286 284 282 284 285 287 290 292 291 292 291 289 288 286 284 281 280 278 280 284 287 288 287 285 284 282 281 283 285 286 288 291 293 295 297 299 301 302 303 302 300 295 287 278 273 272 270 270 273 273 269 265 264 266 269 272 273 271 271 272 273 274 272 267
274 276 279 281 280 279 277 276 276 279 282 286 289 290 290 290 291 291 289 288 287 286 285 284 284 284 285 287 290 293 295 293 290 289 290 287 282 281 281 282 285 286 286 285 283 284 285 285 285 286 287 288 288 288 289 290 292 294 295 296 296 296 294 290 283 278 278 278 276 277 278 275 269 265 264 265 267 268 269 269 271 274 275 273 270
273 277 281 281 280 279 277 277 278 279 282 284 287 288 289 290 290 290 288 286 284 283 283 283 283 284 286 287 290 294 295 292 292 292 292 290 287 288 287 288 289 287 285 285 286 287 289 289 289 289 290 288 287 287 287 287 287 288 289 290 289 290 291 290 288 288 290 289 285 279 276 276 273 268 267 268 269 271 272 271 270 271 274 273 270
271 274 277 278 278 277 277 278 278 279 281 283 286 288 289 290 290 291 290 287 285 282 280 280 280 281 283 286 289 291 289 289 291 291 288 287 286 286 285 288 291 289 288 290 290 290 290 290 290 291 291 290 288 287 286 287 287 287 286 285 284 284 283 282 284 289 291 291 289 284 279 277 275 273 273 273 273 272 271 272 272 272 273 272 270
266 269 273 275 276 277 276 277 277 279 282 285 288 289 289 289 289 289 289 288 286 283 281 280 280 281 281 282 285 288 289 289 288 287 286 285 284 282 283 287 287 286 289 290 289 289 288 288 289 289 289 289 288 287 287 287 288 288 287 285 283 283 282 281 282 285 285 283 283 283 280 278 276 276 276 276 277 276 275 274 274 275 276 276 276
264 265 270 273 274 275 276 277 277 278 281 285 288 290 290 289 288 288 289 288 287 285 284 283 283 284 283 283 284 286 288 288 289 289 290 289 286 284 285 286 284 283 284 284 284 286 287 287 287 286 285 284 284 285 287 288 289 289 289 288 287 285 284 283 283 283 282 279 277 277 276 276 275 274 273 273 275 276 276 276 275 276 277 278 279
263 262 264 267 270 272 275 278 278 276 277 280 285 290 292 291 291 290 289 289 288 286 285 285 284 284 284 285 286 286 286 286 287 289 292 292 288 285 284 284 283 282 282 280 281 283 286 287 287 286 284 283 284 286 288 289 290 290 290 291 290 289 288 286 285 284 282 280 277 275 274 274 274 274 273 272 273 274 274 275 275 275 276 276 276
259 256 257 261 264 267 270 273 272 271 274 279 284 287 289 288 288 288 288 288 288 287 286 285 285 284 284 284 285 286 285 285 286 287 290 291 290 290 291 289 286 284 281 280 281 282 283 284 285 286 286 286 288 290 292 292 292 291 291 291 291 291 290 290 289 288 287 285 282 279 277 276 275 275 275 275 275 276 277 277 276 276 275 275 274
254 250 251 254 258 261 263 265 265 268 275 282 285 285 284 283 282 282 283 284 284 284 284 285 285 286 286 286 286 286 287 287 287 287 287 288 290 292 293 292 291 289 284 281 281 280 281 282 283 285 287 288 291 292 294 295 295 294 293 292 292 292 292 292 293 293 293 292 290 287 285 283 282 280 279 279 280 280 280 280 279 278 277 275 274
246 244 247 249 253 257 261 265 267 273 279 283 284 282 280 279 280 282 283 284 285 284 284 284 285 286 287 288 289 289 290 290 290 289 289 288 289 289 290 291 292 290 286 284 283 281 280 280 281 283 285 288 291 292 294 295 295 296 296 296 295 294 294 293 294 294 294 294 293 292 290 289 288 287 285 284 283 283 283 283 283 281 279 277 275
238 241 246 249 253 257 262 267 273 278 281 281 278 275 274 274 276 281 285 288 290 289 288 287 286 286 286 287 288 289 290 290 290 290 290 289 288 288 289 290 290 288 284 284 283 281 280 280 280 282 284 285 288 291 293 294 295 297 298 299 299 299 298 297 296 295 295 295 294 293 293 292 291 290 290 289 287 287 286 285 285 284 283 281 279
237 244 251 254 256 259 263 269 275 280 281 277 272 268 266 267 269 273 278 283 287 289 289 289 288 287 287 286 287 287 288 289 289 288 288 287 286 286 288 289 289 288 284 283 282 281 281 282 282 283 284 286 288 290 293 295 298 299 301 302 302 303 302 301 300 298 297 297 297 296 295 294 294 293 292 292 291 290 289 289 288 287 286 285 284
241 248 254 256 258 260 264 269 274 278 278 274 271 269 269 270 270 272 275 279 282 284 285 286 287 287 288 288 288 287 286 285 285 285 285 285 284 284 285 287 289 289 286 284 283 283 283 283 284 285 287 290 292 295 297 298 300 301 302 303 304 304 304 303 303 301 300 299 298 299 298 297 296 295 294 294 293 292 291 290 290 290 289 288 287
241 247 251 254 257 260 264 268 271 274 273 272 271 273 274 275 276 278 280 282 282 283 283 284 285 287 288 289 289 288 286 284 282 280 280 281 282 283 284 286 287 287 285 286 285 285 286 285 286 288 291 294 297 299 301 301 302 303 303 303 303 303 303 303 303 303 302 300 299 298 298 297 297 296 295 294 293 292 291 289 289 289 289 289 288
243 246 249 253 257 261 264 266 268 270 270 270 270 271 273 274 276 279 282 283 282 282 282 283 286 288 289 289 288 286 284 282 280 279 278 279 280 282 284 284 285 284 284 285 286 286 287 287 290 291 292 294 296 297 298 299 300 301 301 302 302 301 301 302 303 303 302 301 300 298 297 296 295 294 294 293 292 291 290 289 288 287 286 286 286
245 247 249 253 258 262 265 266 267 267 267 267 267 267 269 272 275 277 278 279 278 278 280 282 285 287 287 286 284 281 278 276 276 277 277 277 278 280 281 282 283 285 285 286 287 288 288 289 290 290 290 292 294 293 294 296 298 299 298 298 297 297 296 296 297 298 299 299 298 298 297 297 295 294 293 292 291 290 289 289 288 286 285 284 283
245 247 249 254 259 263 266 268 268 267 266 264 262 262 265 268 271 273 274 275 275 276 278 280 281 282 282 281 279 276 273 270 270 272 273 274 276 277 277 278 280 281 283 284 285 286 286 286 286 286 289 295 297 296 296 296 297 298 299 297 295 294 293 292 292 292 292 294 294 294 293 294 294 294 293 292 291 290 289 288 287 286 285 284 283
248 250 253 256 259 262 264 265 267 267 267 265 262 261 262 265 267 270 272 272 273 274 275 274 274 275 275 275 276 274 272 270 270 272 273 275 275 276 275 276 277 279 281 284 285 285 285 285 285 286 291 295 296 296 295 294 293 294 295 293 292 291 290 290 291 290 289 289 290 291 290 290 290 290 290 290 289 289 288 288 287 287 286 285 284
250 253 255 258 260 261 262 262 263 264 265 266 267 265 264 265 267 270 272 272 272 272 270 268 266 267 268 269 270 270 270 270 271 272 274 276 275 275 274 274 275 278 281 283 284 283 283 283 284 287 290 292 292 292 291 290 290 291 290 288 286 286 287 287 288 287 287 285 285 286 287 288 288 287 287 287 287 286 285 285 285 285 285 285 285
250 253 255 258 260 261 262 261 260 260 263 266 268 270 271 269 266 266 268 270 271 270 266 263 262 264 266 267 268 268 268 268 269 270 272 273 273 273 272 272 273 276 279 281 282 281 282 282 283 285 287 288 290 290 289 288 287 287 287 286 284 283 284 286 287 286 286 284 282 280 280 281 282 282 283 283 283 284 284 283 283 282 282 282 282
251 255 257 260 262 263 262 261 262 263 264 266 269 272 275 274 269 267 267 268 269 269 265 263 264 267 268 270 271 272 271 269 269 269 269 269 269 270 270 270 271 273 275 278 279 280 280 282 283 284 285 286 287 288 289 288 287 287 286 286 285 284 284 286 288 289 288 287 285 283 280 278 277 277 277 277 277 277 279 280 281 281 280 280 279
255 260 262 262 264 265 264 264 264 264 265 268 270 271 277 281 275 270 271 269 268 266 263 262 264 266 268 271 274 275 273 269 267 266 268 267 267 267 268 268 269 269 271 272 274 276 278 280 282 284 286 287 287 287 287 287 286 286 286 285 285 286 286 287 288 288 288 287 286 285 285 283 281 279 278 277 275 274 273 274 276 277 277 277 277
257 262 264 264 266 267 268 268 266 266 267 269 269 268 273 280 277 271 268 265 264 265 264 264 264 266 268 270 273 275 276 274 270 268 267 267 267 268 268 268 268 269 270 271 274 277 279 281 283 285 287 287 287 287 287 287 286 286 287 287 286 286 286 287 287 287 287 286 285 285 286 285 283 282 282 281 279 277 275 274 274 274 274 275 274
258 262 264 265 265 266 268 269 270 270 270 271 271 270 272 277 277 273 268 264 265 269 269 268 268 270 272 273 274 277 278 279 279 277 273 268 266 266 267 268 269 270 271 274 276 277 279 281 284 285 286 286 286 286 287 287 287 288 289 289 289 289 289 288 288 287 287 287 285 285 286 286 286 285 284 284 283 281 280 279 278 277 277 276 275
261 263 264 264 264 267 269 270 274 274 270 272 276 276 277 277 274 271 267 264 268 272 272 271 270 272 275 276 278 279 279 281 282 282 277 270 265 265 266 268 269 271 274 276 277 279 280 283 284 285 285 285 285 286 286 287 288 289 290 291 290 290 290 289 288 287 286 285 285 285 285 286 286 286 286 286 285 284 283 282 281 280 279 279 279
265 266 267 267 269 271 271 272 275 274 270 273 277 278 279 276 270 269 268 268 271 273 272 272 271 272 273 276 278 279 280 281 281 280 277 270 264 263 266 269 273 276 277 278 279 281 283 284 285 286 287 286 286 287 288 288 290 290 290 291 290 290 289 289 288 287 285 284 284 284 284 285 285 285 285 286 285 285 285 284 283 281 280 280 280
270 270 270 271 272 274 274 275 276 271 268 273 276 276 276 271 268 270 271 270 271 272 271 271 272 273 274 275 277 280 281 280 278 276 273 268 265 267 271 276 279 280 279 280 282 284 286 287 287 287 287 287 287 289 290 290 291 291 290 290 290 290 289 289 289 288 287 286 285 285 285 285 285 285 285 285 285 285 286 285 285 283 282 280 279
273 272 272 273 274 275 275 275 272 267 270 274 274 273 273 270 268 271 272 271 271 271 271 273 274 275 276 276 276 278 280 281 279 276 272 269 270 273 277 280 281 281 281 282 284 285 286 287 287 287 287 288 289 290 290 290 290 290 290 290 290 291 291 291 291 290 290 289 288 288 287 287 287 286 286 285 285 285 285 285 285 284 284 282 280
271 271 271 273 274 274 274 273 271 271 274 273 270 270 270 268 269 271 272 273 272 270 271 274 276 277 277 276 276 276 277 279 279 278 276 274 274 275 277 278 280 280 281 282 283 284 285 285 285 286 287 288 289 290 289 289 289 289 289 290 290 291 291 291 291 291 291 290 290 290 290 290 289 289 287 287 286 285 284 283 283 283 283 282 281
268 267 269 271 272 275 277 277 276 276 275 271 268 268 267 267 267 268 272 275 274 272 274 277 278 278 276 275 275 275 275 277 279 279 279 278 277 277 277 278 279 280 281 282 283 283 283 283 285 286 288 289 289 290 289 288 288 289 289 290 290 291 291 291 291 291 291 291 291 291 291 291 290 289 288 288 287 286 285 283 283 282 282 282 281
262 263 266 270 272 275 277 277 276 277 275 273 272 271 269 268 268 270 276 278 276 276 279 280 279 278 277 276 275 274 276 277 279 280 280 280 281 281 281 281 280 280 281 283 283 283 283 285 286 287 288 290 291 291 290 289 289 289 290 290 290 291 291 291 291 291 291 291 290 290 290 290 289 289 288 287 287 286 285 284 283 282 281 281 281
260 262 266 271 274 276 276 275 275 277 277 276 274 271 269 269 271 276 281 281 279 280 280 279 278 276 276 276 275 274 276 277 278 279 280 281 281 281 282 282 282 282 282 283 284 285 286 287 286 287 290 292 292 292 290 289 289 289 289 289 290 291 291 291 291 291 291 291 291 291 291 290 290 289 288 287 287 285 285 284 284 283 282 281 280
Height
5800 5801 5801 5802 5803 5803 5802 5802 5804 5805 5806 5805 5805 5805 5806 5806 5805 5804 5803 5803 5804 5805 5805 5806 5807 5808 5809 5809 5809 5809 5810 5813 5815 5815 5816 5816 5817 5817 5816 5817 5818 5818 5819 5819 5820 5821 5822 5823 5824 5826 5827 5828 5829 5830 5830 5830 5831 5831 5832 5833 5833 5834 5835 5835 5835 5836 5836 5837 5837 5837 5838 5838 5839 5840 5840 5841 5842 5842 5843 5843 5843 5844 5844 5845 5846
5799 5799 5800 5801 5801 5802 5801 5802 5803 5804 5804 5803 5803 5803 5804 5804 5803 5803 5802 5802 5803 5804 5805 5806 5807 5808 5808 5808 5808 5808 5809 5812 5813 5812 5813 5814 5814 5814 5814 5815 5815 5816 5817 5817 5818 5819 5821 5821 5823 5825 5826 5827 5828 5828 5828 5829 5829 5830 5830 5831 5831 5832 5833 5834 5834 5835 5835 5836 5836 5836 5837 5837 5837 5838 5839 5839 5840 5841 5841 5842 5842 5843 5843 5844 5844
5798 5798 5799 5800 5801 5802 5802 5802 5802 5802 5802 5802 5802 5803 5803 5803 5802 5802 5802 5802 5803 5804 5804 5805 5805 5806 5807 5808 5807 5806 5807 5809 5810 5810 5810 5810 5811 5811 5812 5812 5813 5814 5815 5816 5817 5818 5820 5820 5821 5823 5824 5825 5826 5826 5826 5827 5827 5828 5828 5829 5830 5830 5831 5832 5833 5834 5834 5835 5835 5836 5836 5836 5836 5837 5837 5838 5838 5839 5839 5840 5841 5841 5842 5842 5843
5797 5797 5798 5799 5800 5801 5801 5801 5802 5802 5801 5801 5801 5802 5802 5801 5801 5801 5802 5802 5802 5803 5803 5803 5804 5804 5805 5806 5806 5806 5805 5806 5807 5808 5807 5807 5807 5807 5807 5808 5810 5812 5814 5815 5816 5817 5818 5819 5819 5820 5822 5822 5823 5823 5824 5824 5825 5826 5826 5827 5828 5829 5830 5830 5831 5832 5833 5833 5834 5834 5834 5834 5835 5835 5835 5836 5836 5837 5837 5838 5839 5839 5840 5840 5841
5797 5797 5797 5798 5799 5800 5801 5801 5800 5801 5801 5801 5800 5800 5801 5801 5800 5801 5801 5802 5801 5801 5801 5802 5803 5804 5804 5804 5805 5805 5804 5803 5805 5805 5804 5804 5803 5803 5805 5808 5811 5812 5813 5814 5815 5815 5816 5816 5817 5817 5819 5820 5820 5821 5822 5822 5823 5823 5824 5825 5825 5826 5827 5828 5829 5829 5830 5831 5831 5832 5832 5832 5833 5833 5833 5834 5834 5835 5836 5836 5837 5837 5838 5838 5839
5797 5797 5797 5798 5799 5799 5799 5799 5799 5799 5800 5800 5799 5799 5800 5800 5800 5800 5801 5800 5800 5800 5800 5800 5801 5802 5803 5803 5803 5803 5802 5802 5802 5803 5803 5803 5803 5804 5807 5809 5810 5810 5811 5811 5811 5812 5812 5813 5814 5814 5816 5816 5817 5818 5819 5820 5821 5821 5822 5822 5823 5824 5824 5825 5826 5827 5828 5828 5828 5829 5829 5830 5831 5831 5832 5832 5832 5833 5834 5834 5834 5835 5835 5836 5836
5795 5796 5797 5798 5798 5798 5798 5798 5798 5797 5798 5798 5798 5798 5798 5798 5799 5799 5799 5799 5799 5799 5799 5800 5800 5801 5801 5801 5801 5801 5801 5800 5801 5803 5804 5804 5804 5805 5807 5808 5808 5808 5808 5809 5809 5809 5810 5811 5811 5812 5812 5813 5814 5815 5816 5817 5818 5818 5819 5820 5820 5821 5822 5823 5824 5825 5825 5826 5826 5827 5827 5828 5828 5829 5829 5830 5830 5831 5831 5832 5832 5833 5833 5833 5834
5794 5795 5796 5797 5797 5797 5797 5796 5796 5796 5797 5797 5797 5797 5797 5797 5797 5798 5798 5798 5798 5798 5798 5799 5800 5800 5800 5800 5800 5800 5801 5801 5801 5803 5804 5803 5803 5804 5806 5807 5807 5807 5807 5807 5807 5808 5808 5808 5808 5808 5809 5810 5810 5811 5812 5813 5814 5815 5816 5817 5818 5819 5820 5821 5821 5822 5822 5823 5823 5824 5825 5825 5826 5826 5827 5827 5828 5828 5829 5829 5830 5830 5831 5831 5832
5794 5794 5795 5796 5796 5796 5796 5795 5795 5795 5796 5796 5796 5796 5796 5796 5797 5797 5798 5798 5798 5798 5798 5799 5799 5799 5799 5800 5800 5800 5801 5801 5800 5800 5802 5803 5803 5803 5804 5805 5805 5805 5805 5805 5805 5805 5805 5805 5805 5805 5806 5806 5807 5808 5809 5809 5810 5811 5813 5814 5815 5816 5817 5818 5819 5819 5820 5821 5821 5822 5822 5823 5823 5824 5824 5825 5825 5825 5826 5826 5827 5828 5828 5829 5829
5794 5794 5795 5795 5795 5795 5795 5795 5795 5795 5795 5796 5796 5796 5795 5796 5796 5797 5797 5797 5798 5798 5798 5798 5798 5798 5798 5798 5798 5799 5799 5799 5798 5798 5799 5801 5802 5803 5803 5803 5803 5803 5803 5803 5803 5803 5804 5803 5803 5803 5803 5804 5804 5805 5806 5806 5807 5808 5810 5811 5812 5814 5814 5815 5816 5817 5818 5818 5819 5820 5820 5820 5821 5821 5822 5822 5823 5823 5823 5824 5824 5825 5826 5826 5827
5794 5794 5794 5794 5795 5795 5795 5794 5794 5794 5795 5795 5795 5795 5795 5795 5795 5796 5796 5797 5797 5797 5797 5797 5797 5796 5796 5797 5798 5798 5797 5797 5797 5797 5799 5800 5800 5801 5802 5801 5801 5801 5801 5801 5802 5802 5802 5801 5801 5801 5800 5801 5801 5802 5803 5803 5804 5805 5807 5809 5810 5811 5812 5813 5814 5815 5815 5816 5816 5817 5817 5818 5818 5819 5819 5819 5820 5820 5821 5821 5822 5822 5823 5823 5824
5793 5793 5793 5793 5794 5794 5794 5794 5794 5794 5795 5795 5795 5795 5795 5795 5794 5795 5796 5796 5796 5797 5797 5796 5796 5796 5796 5797 5799 5798 5797 5797 5796 5796 5798 5798 5798 5799 5799 5800 5800 5800 5800 5800 5800 5800 5800 5800 5799 5798 5798 5798 5799 5800 5799 5800 5802 5803 5805 5807 5808 5809 5810 5811 5812 5812 5813 5813 5814 5814 5814 5815 5815 5816 5816 5816 5817 5817 5818 5819 5819 5820 5820 5821 5822
5792 5792 5792 5792 5792 5793 5793 5793 5793 5793 5794 5794 5794 5794 5794 5794 5794 5794 5795 5795 5795 5796 5796 5796 5795 5795 5795 5796 5797 5797 5796 5795 5794 5794 5796 5797 5797 5797 5797 5798 5798 5799 5799 5799 5798 5798 5799 5799 5798 5796 5796 5798 5799 5798 5798 5799 5800 5801 5803 5805 5806 5807 5808 5809 5809 5810 5810 5810 5810 5810 5811 5811 5812 5813 5813 5814 5814 5815 5815 5816 5817 5817 5818 5819 5819
5791 5791 5792 5792 5792 5792 5792 5792 5792 5792 5792 5793 5793 5793 5793 5793 5793 5793 5794 5794 5794 5794 5794 5794 5794 5794 5794 5795 5796 5795 5795 5794 5793 5793 5794 5795 5796 5796 5795 5795 5796 5797 5797 5797 5797 5797 5797 5797 5797 5796 5796 5798 5798 5798 5798 5798 5799 5800 5802 5803 5804 5805 5806 5806 5807 5807 5806 5806 5806 5806 5808 5809 5809 5810 5811 5811 5812 5812 5812 5812 5813 5814 5815 5815 5816
5789 5790 5791 5791 5791 5791 5791 5791 5791 5791 5791 5791 5791 5791 5791 5791 5792 5792 5792 5793 5793 5793 5792 5793 5793 5793 5793 5794 5794 5794 5794 5793 5793 5792 5793 5794 5795 5794 5793 5793 5795 5795 5795 5795 5795 5795 5796 5796 5796 5795 5796 5797 5797 5797 5797 5797 5797 5798 5800 5801 5802 5803 5803 5803 5804 5803 5803 5803 5803 5804 5806 5807 5807 5808 5808 5809 5809 5808 5809 5809 5810 5810 5811 5812 5812
5788 5789 5790 5790 5790 5790 5790 5790 5790 5789 5789 5789 5789 5789 5789 5789 5790 5790 5791 5791 5792 5792 5791 5791 5791 5791 5791 5792 5793 5793 5792 5792 5792 5792 5792 5793 5792 5792 5791 5792 5793 5794 5793 5793 5793 5793 5794 5794 5794 5795 5795 5795 5795 5796 5796 5796 5796 5797 5798 5799 5799 5800 5800 5801 5801 5800 5800 5801 5802 5802 5803 5804 5805 5805 5805 5805 5805 5805 5805 5805 5806 5806 5807 5808 5808
5787 5788 5788 5789 5789 5789 5789 5789 5788 5788 5787 5787 5787 5787 5787 5787 5787 5788 5788 5789 5790 5791 5790 5790 5790 5789 5790 5790 5791 5790 5790 5791 5791 5790 5791 5792 5791 5790 5790 5791 5791 5791 5792 5792 5792 5792 5791 5791 5792 5793 5794 5794 5794 5795 5795 5796 5796 5796 5797 5797 5798 5798 5798 5798 5798 5797 5798 5799 5799 5799 5800 5801 5801 5801 5802 5802 5801 5802 5802 5802 5802 5803 5803 5804 5804
5786 5787 5787 5787 5788 5788 5788 5788 5788 5787 5787 5786 5786 5786 5786 5785 5786 5786 5786 5787 5787 5788 5788 5788 5788 5788 5788 5788 5788 5788 5788 5789 5789 5789 5790 5790 5790 5789 5790 5790 5789 5790 5791 5791 5791 5791 5790 5790 5791 5792 5792 5793 5794 5794 5794 5795 5796 5796 5796 5796 5796 5796 5796 5796 5795 5795 5795 5796 5796 5796 5797 5798 5798 5798 5798 5798 5798 5799 5799 5799 5799 5800 5800 5800 5800
5785 5785 5785 5785 5786 5786 5787 5787 5787 5787 5786 5786 5785 5785 5784 5784 5784 5784 5785 5785 5785 5785 5785 5785 5786 5786 5786 5786 5786 5787 5787 5788 5788 5788 5789 5789 5789 5789 5789 5789 5788 5789 5790 5790 5790 5789 5789 5789 5790 5791 5791 5791 5792 5792 5793 5793 5794 5794 5795 5795 5795 5795 5794 5794 5794 5793 5793 5793 5793 5794 5794 5795 5795 5794 5795 5795 5796 5797 5797 5796 5796 5796 5796 5796 5796
5784 5784 5784 5784 5784 5785 5785 5786 5786 5786 5786 5785 5785 5784 5783 5783 5783 5783 5783 5783 5783 5783 5783 5783 5784 5784 5784 5785 5785 5785 5786 5786 5786 5787 5787 5787 5787 5787 5787 5787 5787 5787 5788 5788 5788 5787 5787 5788 5788 5789 5789 5790 5790 5790 5791 5791 5792 5793 5793 5793 5793 5793 5793 5792 5792 5792 5791 5791 5791 5792 5792 5792 5792 5791 5792 5793 5793 5794 5794 5794 5794 5794 5794 5794 5793
5783 5783 5783 5783 5783 5783 5784 5784 5784 5784 5784 5784 5784 5783 5783 5782 5782 5782 5781 5781 5781 5781 5781 5781 5782 5782 5783 5783 5784 5784 5784 5784 5785 5785 5786 5786 5786 5786 5786 5786 5785 5785 5785 5785 5786 5786 5786 5786 5787 5787 5787 5788 5788 5788 5789 5790 5790 5791 5791 5791 5791 5791 5791 5791 5790 5790 5789 5788 5789 5789 5789 5789 5789 5789 5789 5790 5790 5790 5790 5791 5791 5791 5791 5791 5791
5782 5782 5782 5782 5782 5782 5782 5782 5782 5783 5783 5782 5782 5782 5781 5781 5780 5780 5780 5780 5780 5780 5780 5780 5780 5781 5781 5781 5782 5783 5782 5782 5783 5784 5784 5784 5785 5785 5784 5784 5784 5783 5783 5783 5784 5784 5784 5784 5785 5785 5785 5786 5786 5786 5787 5787 5788 5789 5789 5789 5789 5789 5789 5789 5788 5788 5787 5787 5786 5787 5787 5787 5788 5788 5787 5787 5787 5788 5788 5788 5788 5789 5788 5788 5788
5781 5781 5781 5781 5781 5781 5781 5781 5781 5781 5781 5781 5781 5780 5780 5779 5779 5779 5779 5778 5778 5778 5778 5778 5779 5779 5779 5779 5780 5780 5780 5780 5781 5782 5783 5783 5783 5783 5783 5783 5783 5782 5782 5782 5782 5782 5782 5782 5782 5783 5783 5783 5784 5784 5784 5785 5785 5786 5786 5787 5787 5787 5787 5787 5786 5786 5786 5785 5785 5784 5785 5785 5785 5785 5785 5785 5785 5785 5785 5785 5786 5786 5786 5786 5786
5779 5780 5780 5780 5780 5780 5780 5780 5780 5779 5779 5779 5779 5779 5778 5778 5778 5778 5777 5777 5777 5777 5777 5777 5777 5778 5778 5778 5779 5778 5778 5779 5780 5780 5780 5781 5781 5781 5781 5781 5781 5781 5781 5781 5780 5780 5781 5780 5781 5781 5781 5782 5782 5782 5782 5782 5782 5783 5783 5784 5784 5784 5784 5784 5784 5784 5784 5783 5783 5783 5782 5783 5783 5783 5783 5783 5783 5783 5783 5783 5783 5783 5783 5783 5783
5777 5778 5778 5778 5778 5778 5778 5778 5778 5778 5778 5778 5777 5777 5777 5777 5777 5777 5776 5776 5776 5776 5775 5775 5776 5776 5776 5777 5777 5777 5777 5777 5778 5778 5778 5778 5779 5779 5779 5780 5780 5779 5779 5779 5779 5779 5779 5779 5779 5779 5780 5780 5780 5780 5780 5780 5780 5780 5780 5780 5781 5781 5781 5782 5782 5782 5781 5781 5781 5780 5780 5780 5781 5781 5781 5781 5781 5781 5781 5781 5781 5781 5781 5781 5781
5776 5776 5776 5776 5776 5776 5776 5776 5776 5776 5776 5776 5776 5776 5776 5775 5775 5775 5775 5775 5774 5774 5774 5774 5774 5774 5775 5775 5775 5775 5775 5776 5776 5776 5775 5776 5776 5777 5777 5778 5778 5778 5777 5777 5777 5777 5777 5777 5777 5777 5777 5777 5778 5778 5778 5778 5777 5777 5777 5777 5778 5778 5778 5778 5779 5779 5779 5779 5778 5778 5778 5778 5778 5778 5778 5778 5778 5778 5778 5778 5778 5778 5778 5778 5778
5774 5774 5774 5774 5774 5774 5774 5774 5774 5774 5774 5774 5774 5774 5774 5774 5774 5774 5774 5773 5773 5773 5773 5772 5772 5773 5773 5773 5773 5773 5773 5774 5774 5774 5774 5774 5773 5774 5775 5775 5775 5776 5775 5775 5775 5775 5775 5775 5775 5775 5775 5775 5775 5775 5775 5775 5775 5775 5775 5775 5775 5775 5775 5775 5775 5775 5775 5775 5775 5775 5775 5775 5775 5774 5774 5774 5774 5774 5774 5774 5774 5774 5774 5774 5774
5771 5771 5771 5772 5772 5772 5772 5772 5772 5772 5772 5772 5772 5772 5772 5772 5772 5772 5772 5772 5772 5772 5771 5771 5771 5771 5771 5771 5771 5771 5771 5771 5771 5772 5772 5772 5771 5771 5772 5772 5773 5773 5773 5772 5772 5772 5772 5773 5773 5773 5773 5772 5772 5772 5772 5772 5772 5772 5773 5773 5773 5773 5773 5772 5772 5772 5772 5772 5772 5772 5772 5771 5771 5771 5771 5771 5771 5771 5770 5770 5770 5770 5770 5770 5771
5768 5768 5769 5769 5769 5770 5770 5770 5770 5770 5770 5770 5771 5771 5771 5771 5771 5771 5771 5771 5771 5771 5770 5770 5770 5770 5770 5770 5770 5770 5769 5769 5769 5769 5769 5769 5769 5769 5769 5770 5771 5771 5771 5770 5770 5770 5770 5770 5770 5770 5770 5770 5770 5770 5770 5770 5770 5770 5770 5770 5770 5770 5770 5770 5770 5770 5769 5769 5769 5769 5769 5769 5768 5768 5768 5768 5768 5767 5767 5767 5767 5766 5767 5767 5767
5766 5766 5766 5767 5767 5767 5767 5767 5767 5767 5768 5768 5769 5769 5769 5770 5770 5770 5770 5770 5770 5769 5769 5769 5769 5769 5769 5768 5768 5768 5768 5767 5767 5767 5767 5767 5767 5767 5767 5767 5768 5769 5769 5768 5768 5768 5768 5768 5768 5768 5768 5769 5769 5768 5768 5768 5768 5768 5768 5768 5768 5768 5768 5768 5768 5768 5767 5767 5767 5767 5767 5766 5766 5766 5765 5765 5765 5764 5764 5764 5764 5763 5763 5763 5763
5763 5764 5764 5765 5765 5765 5765 5765 5765 5765 5766 5766 5767 5768 5768 5768 5768 5768 5768 5768 5768 5768 5768 5768 5768 5767 5767 5767 5767 5767 5766 5766 5766 5765 5765 5765 5765 5765 5765 5765 5766 5767 5767 5767 5767 5766 5766 5767 5767 5767 5767 5767 5767 5767 5767 5767 5766 5766 5766 5766 5766 5766 5766 5766 5766 5766 5766 5765 5765 5765 5764 5764 5764 5763 5763 5762 5762 5762 5761 5761 5761 5760 5760 5760 5760
5761 5761 5762 5762 5763 5763 5763 5763 5763 5764 5764 5765 5765 5766 5766 5766 5766 5766 5766 5766 5766 5766 5766 5766 5766 5766 5766 5766 5765 5765 5765 5765 5764 5764 5764 5764 5764 5764 5763 5763 5764 5765 5765 5765 5765 5765 5765 5765 5765 5765 5765 5765 5765 5765 5765 5765 5765 5765 5765 5765 5764 5764 5764 5764 5764 5764 5764 5763 5763 5763 5762 5762 5761 5761 5760 5760 5759 5759 5759 5758 5758 5758 5757 5757 5757
5759 5759 5760 5760 5761 5761 5761 5761 5762 5762 5763 5763 5763 5764 5764 5764 5764 5764 5763 5763 5763 5764 5764 5764 5764 5764 5764 5764 5764 5764 5763 5763 5763 5763 5763 5763 5763 5762 5762 5762 5762 5763 5763 5763 5763 5763 5763 5763 5764 5764 5764 5764 5764 5764 5763 5763 5763 5763 5763 5763 5763 5762 5762 5762 5762 5762 5762 5762 5761 5761 5760 5760 5759 5758 5758 5757 5757 5756 5756 5756 5755 5755 5754 5754 5754
5756 5757 5757 5758 5758 5759 5759 5759 5760 5760 5761 5761 5762 5762 5762 5762 5762 5762 5762 5761 5761 5762 5762 5762 5762 5762 5762 5762 5762 5762 5762 5762 5761 5761 5761 5761 5761 5761 5761 5761 5761 5761 5762 5762 5762 5762 5762 5762 5762 5762 5762 5762 5762 5762 5762 5762 5762 5762 5761 5761 5761 5761 5760 5760 5759 5759 5759 5759 5759 5758 5758 5757 5757 5756 5756 5755 5754 5754 5753 5753 5753 5752 5752 5751 5751
5754 5754 5755 5756 5756 5757 5757 5757 5758 5758 5759 5759 5760 5760 5760 5760 5760 5760 5760 5760 5760 5760 5760 5760 5760 5761 5761 5760 5760 5760 5760 5760 5760 5760 5760 5760 5760 5760 5760 5760 5760 5760 5760 5760 5760 5760 5760 5760 5760 5760 5760 5760 5760 5760 5759 5759 5759 5759 5759 5759 5759 5759 5759 5758 5758 5757 5756 5756 5756 5756 5755 5755 5754 5754 5753 5752 5752 5751 5750 5750 5750 5749 5749 5748 5748
5751 5752 5753 5754 5754 5755 5755 5755 5756 5756 5757 5757 5758 5758 5757 5757 5757 5757 5758 5758 5759 5759 5759 5759 5758 5758 5758 5758 5758 5758 5758 5758 5758 5758 5758 5758 5758 5758 5758 5758 5758 5758 5758 5759 5759 5759 5758 5758 5758 5758 5757 5758 5758 5757 5757 5757 5757 5757 5757 5756 5756 5756 5756 5756 5756 5755 5755 5754 5753 5753 5753 5752 5751 5751 5750 5749 5749 5748 5747 5747 5746 5746 5745 5745 5744
5749 5749 5750 5751 5752 5752 5753 5753 5754 5754 5754 5754 5755 5755 5755 5755 5755 5755 5756 5756 5757 5757 5757 5756 5756 5756 5756 5755 5755 5755 5755 5756 5756 5756 5756 5756 5756 5756 5756 5757 5756 5756 5756 5756 5756 5756 5756 5756 5756 5755 5755 5755 5755 5755 5755 5755 5754 5754 5754 5754 5753 5752 5752 5752 5752 5751 5752 5751 5750 5749 5748 5749 5748 5747 5747 5746 5745 5745 5744 5743 5742 5742 5741 5741 5740
5746 5747 5747 5748 5749 5749 5750 5751 5751 5751 5751 5751 5752 5752 5752 5752 5753 5753 5754 5754 5754 5755 5754 5754 5754 5753 5753 5753 5753 5752 5752 5753 5753 5753 5752 5753 5753 5753 5753 5754 5754 5753 5753 5753 5753 5753 5753 5753 5753 5752 5752 5752 5752 5752 5752 5752 5751 5751 5751 5750 5749 5749 5748 5748 5748 5747 5747 5747 5747 5746 5744 5744 5744 5743 5743 5742 5741 5740 5740 5739 5738 5738 5737 5737 5736
5742 5744 5744 5745 5746 5747 5747 5747 5747 5748 5748 5748 5749 5749 5749 5749 5750 5751 5752 5752 5752 5752 5751 5751 5751 5750 5750 5750 5749 5749 5749 5749 5749 5749 5749 5749 5749 5749 5750 5750 5750 5750 5750 5750 5750 5750 5750 5750 5750 5750 5749 5749 5749 5748 5748 5748 5748 5747 5747 5746 5745 5745 5744 5744 5743 5743 5742 5742 5743 5743 5741 5740 5739 5739 5738 5738 5736 5736 5735 5734 5734 5733 5733 5732 5731
5739 5740 5742 5743 5744 5744 5745 5744 5744 5745 5745 5746 5746 5746 5746 5746 5747 5748 5749 5749 5749 5748 5748 5748 5747 5747 5746 5746 5746 5746 5746 5745 5746 5745 5745 5745 5745 5745 5746 5746 5747 5747 5747 5746 5747 5746 5746 5746 5746 5746 5746 5746 5745 5745 5744 5744 5743 5743 5742 5741 5741 5740 5740 5739 5738 5737 5736 5736 5736 5736 5736 5735 5735 5734 5734 5733 5732 5731 5730 5730 5729 5728 5727 5727 5726
5737 5738 5739 5740 5741 5742 5741 5742 5742 5743 5743 5743 5743 5743 5743 5743 5744 5745 5745 5745 5745 5744 5744 5744 5744 5743 5742 5742 5743 5743 5742 5741 5742 5742 5742 5742 5742 5743 5743 5743 5743 5743 5743 5743 5743 5743 5743 5742 5742 5742 5741 5741 5741 5740 5740 5739 5738 5738 5738 5737 5736 5735 5734 5734 5733 5731 5730 5730 5730 5729 5729 5728 5729 5728 5728 5727 5727 5726 5726 5725 5724 5722 5722 5721 5721
5735 5736 5737 5737 5738 5739 5739 5739 5740 5740 5739 5739 5739 5740 5741 5741 5742 5742 5742 5741 5741 5739 5740 5741 5740 5739 5738 5739 5740 5740 5739 5738 5738 5738 5739 5739 5740 5740 5740 5740 5740 5740 5740 5740 5739 5739 5739 5738 5738 5737 5736 5736 5735 5734 5734 5733 5733 5733 5732 5731 5731 5730 5729 5728 5727 5726 5724 5724 5723 5723 5723 5721 5721 5722 5721 5720 5719 5719 5719 5719 5718 5717 5716 5715 5714
5732 5733 5734 5735 5736 5736 5736 5736 5737 5736 5735 5735 5735 5736 5737 5738 5739 5739 5738 5738 5737 5736 5736 5737 5737 5736 5735 5735 5736 5736 5736 5735 5735 5735 5736 5736 5737 5737 5737 5736 5736 5736 5736 5735 5735 5735 5734 5734 5733 5732 5732 5730 5729 5729 5727 5726 5726 5726 5726 5725 5724 5723 5723 5722 5721 5720 5719 5717 5716 5717 5717 5715 5714 5714 5714 5713 5712 5711 5711 5711 5711 5710 5709 5708 5707
5729 5730 5731 5731 5732 5732 5733 5733 5732 5732 5731 5731 5732 5732 5733 5734 5735 5735 5736 5735 5734 5733 5733 5733 5733 5733 5732 5732 5732 5732 5732 5731 5731 5732 5732 5732 5733 5733 5733 5733 5732 5732 5731 5731 5730 5730 5729 5729 5727 5727 5726 5725 5724 5723 5722 5720 5720 5719 5718 5718 5717 5716 5716 5715 5715 5714 5713 5711 5710 5710 5711 5710 5708 5707 5707 5706 5704 5704 5703 5703 5703 5702 5702 5701 5700
5725 5726 5727 5727 5728 5728 5729 5729 5728 5728 5727 5728 5728 5728 5729 5730 5730 5731 5732 5732 5731 5730 5729 5729 5728 5728 5728 5727 5727 5727 5728 5728 5728 5728 5728 5728 5728 5728 5729 5728 5728 5727 5727 5726 5725 5725 5724 5724 5722 5721 5721 5720 5718 5718 5716 5715 5714 5713 5712 5711 5710 5709 5708 5708 5707 5707 5706 5704 5703 5703 5704 5704 5702 5701 5701 5699 5697 5696 5695 5695 5694 5694 5694 5693 5693
5721 5722 5722 5723 5723 5723 5724 5724 5724 5724 5724 5724 5724 5724 5725 5725 5726 5726 5727 5728 5727 5726 5726 5725 5724 5723 5723 5722 5722 5722 5722 5723 5723 5723 5724 5724 5724 5724 5724 5724 5723 5722 5721 5721 5720 5719 5719 5718 5717 5716 5715 5714 5713 5712 5711 5709 5708 5707 5706 5705 5703 5702 5702 5701 5700 5699 5698 5697 5696 5696 5697 5696 5695 5694 5694 5692 5691 5689 5688 5686 5685 5685 5685 5685 5684
5715 5716 5716 5717 5717 5717 5718 5719 5720 5720 5720 5720 5720 5720 5720 5720 5720 5721 5721 5722 5722 5721 5721 5720 5719 5719 5718 5717 5718 5718 5717 5717 5717 5718 5718 5718 5718 5718 5718 5718 5718 5716 5715 5715 5715 5714 5713 5712 5711 5710 5710 5708 5707 5706 5705 5703 5702 5701 5699 5698 5697 5696 5695 5694 5693 5692 5691 5690 5688 5688 5689 5689 5687 5686 5686 5685 5684 5683 5681 5679 5677 5676 5676 5676 5675
5710 5710 5711 5711 5711 5711 5711 5713 5714 5715 5715 5715 5715 5715 5715 5715 5715 5715 5715 5715 5715 5715 5715 5715 5715 5714 5712 5712 5713 5712 5711 5711 5711 5711 5712 5712 5712 5712 5712 5712 5712 5710 5709 5709 5709 5708 5707 5707 5705 5705 5704 5702 5701 5700 5699 5697 5696 5695 5694 5692 5691 5690 5689 5688 5687 5685 5684 5683 5681 5680 5680 5681 5679 5678 5677 5677 5676 5676 5674 5672 5670 5668 5667 5666 5666
5704 5705 5705 5705 5706 5706 5706 5706 5708 5708 5708 5708 5708 5708 5709 5709 5709 5709 5709 5709 5709 5709 5709 5710 5710 5709 5707 5707 5708 5706 5704 5705 5705 5704 5704 5705 5705 5705 5706 5707 5707 5706 5703 5703 5703 5702 5701 5701 5700 5699 5697 5696 5695 5694 5692 5691 5690 5689 5688 5686 5685 5683 5682 5681 5680 5679 5677 5676 5674 5673 5673 5673 5671 5669 5669 5669 5668 5668 5666 5664 5662 5661 5660 5658 5657
5699 5700 5699 5700 5701 5701 5701 5701 5702 5703 5703 5703 5703 5702 5702 5702 5702 5702 5702 5702 5702 5703 5704 5704 5704 5703 5701 5702 5702 5700 5698 5698 5699 5697 5697 5698 5697 5698 5698 5699 5700 5701 5699 5697 5696 5696 5695 5694 5693 5692 5691 5690 5689 5687 5686 5685 5684 5683 5681 5680 5679 5677 5676 5675 5673 5672 5671 5669 5667 5666 5666 5665 5664 5662 5661 5661 5661 5659 5657 5656 5655 5653 5652 5650 5648
5694 5694 5694 5694 5695 5695 5695 5695 5697 5697 5696 5696 5696 5696 5695 5695 5695 5695 5695 5695 5695 5696 5697 5698 5697 5696 5695 5695 5695 5694 5692 5692 5692 5691 5691 5690 5690 5690 5690 5690 5691 5693 5693 5691 5689 5689 5689 5687 5686 5685 5684 5683 5682 5681 5680 5678 5677 5676 5675 5674 5672 5671 5669 5668 5667 5665 5664 5661 5660 5658 5657 5656 5656 5655 5652 5652 5653 5652 5649 5647 5646 5644 5643 5642 5641